Showing default

SPAINSAT NG1, 62852

Orbit data source: Space-Track

SPAINSAT NG1, 62852 is a payload satellite owned by Hisdesat (ES) in GEO that was launched on Thu, 30 Jan 2025 UTC via an FALCON 9 launch vehicle from the Air Force Eastern Test Range (AFETR). Payload-class satellites include a variety of spacecraft equipped with specific instruments for various scientific and technological missions. These include communications satellites like Starlink; space stations such as the ISS; scientific satellites like the Hubble; Earth observation satellites from companies like Planet Labs, Umbra, and HawkEye 360; GPS; miniature CubeSats for education and research; and military/defense satellites.

Not visible in the next 10 days
Identifier
62852, 2025-021A
Orbit
GEO
Country
Flag of ESES / SPN
Related business
Manufacturer
ADST/ADSUK
Mission
Operational Defense Communications
Bus & Motor
EUROSTAR NEO, PPS-5000
Mass
6,100 kg wet, ~5,500 kg dry
Launch date (UTC)
2025-01-30 (1 year ago)
Launch vehicle
FALCON 9
Launch site
Air Force Eastern Test Range (AFETR)
Object type
Payload
Rocket body
Debris
Shape & HBR
Box + 2 Pan, 21.4 m
Radar Cross Section
50.755 m², Large (>1 m²)

Expand to show TLE details & history
Last TLE update: 20 hours ago

TLE from 20 hours ago
0 SPAINSAT NG1
1 62852U 25021A   26171.03045817  .00000146  00000-0  00000-0 0  9999
2 62852   0.0178   1.7789 0000223 177.4851 128.9379  1.00271397  4017
Epoch: 2026-06-20T00:43Z
TLE epoch observation values (Epoch: 2026-06-20T00:43:51.585Z)
Latitude
-0.03047°
Longitude
29.00057°
Altitude
35,786.787 km
Speed
3.075 km/s
True Right ascension
20h 32m 51s
True Declination
0° 01' 50"
Sunlit
Object was in daylight at epoch
Visualization orbit readout
Latitude
Unknown
Longitude
Unknown
Altitude
Unknown
Speed
Unknown
Apparent Right ascension
Unknown
Apparent Declination
Unknown
Sunlit
N/A
Visualization observer readout
Local Sidereal Time
07:18:35
Azimuth
Unknown
Elevation
Unknown
Doppler factor
Unknown
Orbital elements
Apogee altitude
35,788.714 km
Perigee altitude
35,786.834 km
Semi-major axis
42,165.911 km
Eccentricity
0.00002
Inclination
0.0178°
RAAN
1.7789°
Arg. of periapsis
177.4851°
True anomaly
128.93989°
Mean anomaly
128.9379°
Eccentric anomaly
128.93889°
Mean motion
0.25067 °/min
Orbital period
1,436.16 mins
BSTAR
0
Loading maneuver chart data...
Computing Atmospheric mass density...
Loading historical data...
Loading historical data...
Loading historical data...
Loading historical data...
Loading historical data...
Loading historical data...
Loading historical data...
Other satellites on launch #21 in the year 2025 (2025-01-30 UTC)

Documentation

Showing up to 5 results
|